Flag for Brazil Weather past 2 weeks in Maceió, Alagoas, Brazil

Now
70 °F

Scattered clouds.


Feels Like: 70 °F
Forecast: 72 / 82 °F
Wind: 2 mph from Southwest

Location: Maceio Aeroporto

Current Time: Aug 27, 2014 at 8:03:03 AM

Latest Report: Aug 27, 2014 at 7:00 AM


Visibility: N/A

Pressure: 30.01 "Hg

Humidity: 100%

Dew point: 70 °F

Location of MaceióLocation

Historic Weather in Maceió — Graph

°F

Maceió temperature yesterday

Maximum temperature yesterday: 81 °F (at 10:00 AM)
Minimum temperature yesterday: 66 °F (at 1:00 AM)
Average temperature yesterday: 73 °F

Past Weeks' High & Low Weather Summary

 TemperatureHumidityPressure
High82 °F (Aug 13, 1:00 PM)100% (Aug 13, 2:00 AM)30.15 "Hg (Aug 13, 2:00 AM)
Low61 °F (Aug 14, 5:00 AM)45% (Aug 14, 2:00 PM)29.62 "Hg (Aug 18, 12:00 AM)
Average72 °F82%30.06 "Hg
* Reported Aug 12 7:00 AM — Aug 27 7:00 AM, Maceió, Weather by CustomWeather, © 2014

Note: Actual official high and low records may vary slightly from our data, if they occured in-between our weather recording intervals... More about our weather records

Advertising

Maceió weather history for previous 24 hours

 ConditionsComfort  
Time TempWeatherWind HumidityBarometerVisibility
7:00 AM
Aug 27
70 °FScattered clouds.2 mph100%30.01 "HgN/A
6:00 AM68 °FScattered clouds.No wind100%30.01 "HgN/A
5:00 AM68 °FPassing clouds.5 mph100%30.01 "HgN/A
4:00 AM68 °FPassing clouds.2 mph100%30.01 "HgN/A
3:00 AM68 °FPassing clouds.2 mph100%30.01 "HgN/A
2:00 AM68 °FPassing clouds.1 mph100%30.01 "HgN/A
1:00 AM68 °FPassing clouds.1 mph100%30.04 "Hg5 mi
12:10 AM68 °FRain. Fog.5 mph94%30.04 "Hg1 mi
12:00 AM68 °FPassing clouds.5 mph94%30.04 "HgN/A
11:00 PM
Aug 26
70 °FPassing clouds.3 mph88%30.07 "HgN/A
10:00 PM70 °FPassing clouds.2 mph94%30.07 "HgN/A
9:00 PM70 °FPassing clouds.3 mph88%30.07 "HgN/A
8:00 PM70 °FPassing clouds.2 mph88%30.04 "HgN/A
7:00 PM70 °FPassing clouds.5 mph88%30.04 "HgN/A
6:00 PM70 °FPassing clouds.10 mph88%30.04 "HgN/A
5:00 PM75 °FPassing clouds.10 mph69%30.01 "HgN/A
4:00 PM77 °FPassing clouds.13 mph69%30.01 "HgN/A
3:00 PM81 °FScattered clouds.10 mph58%30.01 "HgN/A
2:00 PM81 °FScattered clouds.10 mph58%30.01 "HgN/A
1:00 PM81 °FScattered clouds.15 mph51%30.04 "HgN/A
12:00 PM79 °FScattered clouds.14 mph61%30.07 "HgN/A
11:00 AM79 °FScattered clouds.9 mph61%30.07 "HgN/A
10:00 AM81 °FScattered clouds.12 mph58%30.09 "HgN/A
9:00 AM79 °FScattered clouds.12 mph65%30.09 "HgN/A
8:00 AM75 °FScattered clouds.12 mph78%30.07 "HgN/A
Weather by CustomWeather, © 2014

See weather overviewHow to use our weather pages